Key West, FL

5:53 PM EST on February 24, 2018 (GMT -0500)
Key West International

Weather History for KEYW - January, 2015

Change the Weather History Date:

Sunday, January 18, 2015

  Actual Average Record
Temperature  
Mean Temperature 72 °F 69 °F  
Max Temperature 75 °F 74 °F 85 °F (1960)
Min Temperature 68 °F 64 °F 48 °F (1981)
Degree Days  
Heating Degree Days 0 1  
Month to date heating degree days 0 18  
Since 1 July heating degree days 6 36  
Cooling Degree Days 7 5  
Month to date cooling degree days 170 92  
Year to date cooling degree days 170 92  
Growing Degree Days 22 (Base 50)    
Moisture  
Dew Point 65 °F    
Average Humidity 82    
Maximum Humidity 97    
Minimum Humidity 66    
Precipitation  
Precipitation T in 0.07 in 2.04 in (1899)
Month to date precipitation 0.25 1.17  
Year to date precipitation 0.25 1.17  
Snow  
Snow 0.00 in - - ()
Month to date snowfall 0.0  
Since 1 July snowfall 0.0  
Snow Depth 0.00 in    
Sea Level Pressure  
Sea Level Pressure 30.12 in    
Wind  
Wind Speed 8 mph (NNE)    
Max Wind Speed 16 mph    
Max Gust Speed 23 mph    
Visibility 10 miles    
Events Rain    
T = Trace of Precipitation, MM = Missing Value Source: NWS Daily Summary

Daily Weather History Graph

Daily Weather History Graph

Search for Another Location

Airport or City:

Trip Planner

Search our weather history database for the weather conditions in past years. The results will help you decide how hot, cold, wet, or windy it might be!

Date:

Astronomy

Jan. 18, 2015 Rise Set
Actual Time 7:12 AM EST 6:02 PM EST
Civil Twilight 6:48 AM EST 6:26 PM EST
Nautical Twilight 6:20 AM EST 6:54 PM EST
Astronomical Twilight 5:53 AM EST 7:21 PM EST
Moon 5:08 AM EST (1/18) 4:23 PM EST (1/18)
Length of Visible Light 11h 38m
Length of Day
10h 49m
Waning Crescent, 5% of the Moon is Illuminated
Jan 18
Waning Crescent
Jan 20
New
Jan 26
First Quarter
Feb 3
Full
Feb 11
Last Quarter

Hourly Weather History & Observations

Time (EST) Temp. Dew Point Humidity Pressure Visibility Wind Dir Wind Speed Gust Speed Precip Events Conditions
12:53 AM 73.0 °F 64.9 °F 76% 30.10 in 10.0 mi ESE 9.2 mph - N/A   Clear
1:53 AM 73.0 °F 64.9 °F 76% 30.09 in 10.0 mi East 8.1 mph - N/A   Clear
2:53 AM 71.6 °F 66.2 °F 83% 30.08 in 10.0 mi ENE 3.5 mph - N/A   Clear
3:53 AM 69.1 °F 66.0 °F 90% 30.07 in 10.0 mi ENE 4.6 mph - N/A   Clear
4:53 AM 68.0 °F 66.0 °F 93% 30.08 in 10.0 mi NNE 3.5 mph - N/A   Clear
5:53 AM 68.0 °F 66.0 °F 93% 30.08 in 10.0 mi Calm Calm - N/A   Clear
6:53 AM 68.0 °F 66.0 °F 93% 30.10 in 10.0 mi NNE 3.5 mph - N/A   Scattered Clouds
7:53 AM 70.0 °F 68.0 °F 93% 30.12 in 10.0 mi North 4.6 mph - N/A   Overcast
8:53 AM 72.0 °F 69.1 °F 91% 30.14 in 10.0 mi North 6.9 mph - N/A   Overcast
9:53 AM 73.0 °F 68.0 °F 84% 30.16 in 10.0 mi North 5.8 mph - 0.00 in Rain Light Rain
10:53 AM 73.9 °F 68.0 °F 82% 30.16 in 10.0 mi North 9.2 mph - 0.00 in   Overcast
11:53 AM 73.0 °F 66.9 °F 81% 30.14 in 10.0 mi North 8.1 mph - N/A   Mostly Cloudy
12:53 PM 73.9 °F 66.0 °F 76% 30.12 in 10.0 mi North 12.7 mph - N/A   Partly Cloudy
1:53 PM 75.0 °F 66.9 °F 76% 30.10 in 10.0 mi North 12.7 mph 20.7 mph N/A   Unknown
2:53 PM 73.4 °F 66.2 °F 78% 30.08 in 10.0 mi North 11.5 mph 21.9 mph N/A   Scattered Clouds
3:53 PM 73.9 °F 64.9 °F 73% 30.09 in 10.0 mi North 11.5 mph - N/A   Clear
4:53 PM 73.9 °F 64.0 °F 71% 30.10 in 10.0 mi North 12.7 mph - N/A   Clear
5:53 PM 72.0 °F 59.0 °F 64% 30.12 in 10.0 mi North 10.4 mph - N/A   Clear
6:53 PM 71.1 °F 59.0 °F 66% 30.13 in 10.0 mi North 8.1 mph - N/A   Clear
7:53 PM 70.0 °F 60.1 °F 71% 30.14 in 10.0 mi North 6.9 mph - N/A   Clear
8:53 PM 70.0 °F 61.0 °F 73% 30.14 in 10.0 mi North 11.5 mph 18.4 mph N/A   Clear
9:53 PM 70.0 °F 61.0 °F 73% 30.15 in 10.0 mi North 9.2 mph - N/A   Clear
10:53 PM 70.0 °F 61.0 °F 73% 30.16 in 10.0 mi North 12.7 mph - N/A   Clear
11:53 PM 69.1 °F 62.1 °F 78% 30.15 in 10.0 mi North 13.8 mph 20.7 mph N/A   Clear